This is the latest recevied weather packets stored in our database for station/object EA3KZ-1. If no packets are shown the sender has not sent any weather packets the latest 10 day(s).
| Time | Temp. | Humidity | Pressure | Rain* | Wind** | Luminosity | Snow |
|---|---|---|---|---|---|---|---|
| 1777134640 | 19.44° C | 62% | 1013.1 hPa | 0 mm | - | - | - |
| 1777134037 | 20° C | 60% | 1013 hPa | 0 mm | - | - | - |
| 1777133435 | 21.11° C | 57% | 1012.9 hPa | 0 mm | - | - | - |
| 1777132832 | 21.11° C | 56% | 1012.8 hPa | 0 mm | - | - | - |
| 1777132229 | 21.67° C | 55% | 1012.8 hPa | 0 mm | - | - | - |
| 1777131627 | 21.11° C | 55% | 1012.8 hPa | 0 mm | - | - | - |
| 1777131024 | 21.11° C | 54% | 1012.6 hPa | 0 mm | - | - | - |
| 1777130422 | 21.11° C | 54% | 1012.6 hPa | 0 mm | - | - | - |
| 1777129819 | 21.67° C | 53% | 1012.5 hPa | 0 mm | - | - | - |
| 1777129216 | 21.67° C | 52% | 1012.6 hPa | 0 mm | - | - | - |
| 1777128674 | 21.67° C | 53% | 1012.6 hPa | 0 mm | - | - | - |
| 1777128072 | 22.22° C | 52% | 1012.5 hPa | 0 mm | - | - | - |
| 1777127469 | 21.67° C | 52% | 1012.6 hPa | 0 mm | - | - | - |
| 1777126866 | 22.78° C | 50% | 1012.6 hPa | 0 mm | - | - | - |
| 1777126264 | 22.22° C | 50% | 1012.6 hPa | 0 mm | - | - | - |
| 1777125661 | 22.78° C | 50% | 1012.7 hPa | 0 mm | - | - | - |
| 1777125059 | 22.22° C | 50% | 1012.6 hPa | 0 mm | - | - | - |
| 1777124456 | 22.22° C | 51% | 1012.8 hPa | 0 mm | - | - | - |
| 1777123853 | 22.22° C | 51% | 1012.7 hPa | 0 mm | - | - | - |
| 1777123250 | 22.22° C | 52% | 1012.7 hPa | 0 mm | - | - | - |
| 1777122648 | 22.22° C | 52% | 1012.7 hPa | 0 mm | - | - | - |
| 1777122045 | 23.33° C | 50% | 1012.8 hPa | 0 mm | - | - | - |
| 1777121442 | 23.33° C | 50% | 1013 hPa | 0 mm | - | - | - |
| 1777120840 | 23.89° C | 49% | 1012.9 hPa | 0 mm | - | - | - |
| 1777120237 | 22.78° C | 49% | 1012.7 hPa | 0 mm | - | - | - |
* Rain latest hour (hover to see other rain measurements)
** Current wind speed in m/s (hover to see current wind gust speed)